Regional Weather Roundup
Issued by NWS

Home | Current Version | Previous Version | Text Only | Print | Product List | Glossary On
Versions: 1 2 3 4 5 6 7 8 9 10 11 12 13 14 15 16 17 18 19 20 21 22 23 24 25 26 27 28 29 30 31 32 33 34 35 36 37 38 39 40 41 42 43 44 45 46 47 48 49 50
000
ASUS45 KBOI 181110
RWRID
WEATHER ROUNDUP FOR IDAHO
NATIONAL WEATHER SERVICE BOISE ID
500 AM MDT THU SEP 18 2014

NOTE: "FAIR" INDICATES FEW OR NO CLOUDS BELOW 12000 FEET
WITH NO SIGNIFICANT WEATHER AND/OR OBSTRUCTIONS TO VISIBILITY

IDZ012-014-181200-
SOUTHWEST IDAHO


CITY           SKY/WX    TMP DP  RH WIND       PRES   REMARKS
BOISE          CLOUDY    72  41  32 CALM      29.75R
CALDWELL       CLOUDY    64  52  63 CALM      29.76R
MOUNTAIN HOME  MOCLDY    69  48  46 NW6       29.73S
$$

IDZ016-017-181200-
SOUTHCENTRAL IDAHO


CITY           SKY/WX    TMP DP  RH WIND       PRES   REMARKS
BURLEY         CLOUDY    70  45  40 S12       29.79S
JEROME         CLOUDY    65  49  56 NE9       29.80F
TWIN FALLS     CLOUDY    73  44  35 S9        29.80F
$$

IDZ019>023-181200-
SOUTHEAST IDAHO


CITY           SKY/WX    TMP DP  RH WIND       PRES   REMARKS
IDAHO FALLS    CLOUDY    69  45  41 E10       29.86F
POCATELLO      CLEAR     64  46  52 CALM      29.84F
REXBURG        CLOUDY    64  45  49 S5        29.90R
$$

IDZ006-010-011-018-031-032-181200-
CENTRAL IDAHO MOUNTAINS


CITY           SKY/WX    TMP DP  RH WIND       PRES   REMARKS
MCCALL         CLOUDY    54  43  66 E6        29.87R
HAILEY         CLOUDY    61  45  55 NW10      29.95R
STANLEY          N/A     51  42  71 SE7       29.99F
SALMON         CLOUDY    52  46  82 S10       29.87R
CHALLIS        LGT RAIN  58  46  64 S5        29.93R
$$

IDZ002-004-006-007-026-181200-
NORTHERN IDAHO


CITY           SKY/WX    TMP DP  RH WIND       PRES   REMARKS
LEWISTON       CLOUDY    66  42  41 SE8       29.65R
LOWELL           N/A     58  55  90 NW3       29.69S
COEUR D`ALENE  PTCLDY    55  46  71 S3        29.67S
MULLAN PASS    CLOUDY    62  34  35 SW6       29.88R
$$



USA.gov is the U.S. government's official web portal to all federal, state and local government web resources and services.